Regional Weather Roundup
Issued by NWS Charleston, SC

Current Version | Previous Version | Text Only | Print | Product List | Glossary Off
Versions: 1 2 3 4 5 6 7 8 9 10 11 12 13 14 15 16 17 18 19 20 21 22 23 24 25 26 27 28 29 30 31 32 33 34 35 36 37 38 39 40 41 42 43 44 45 46 47 48 49 50

982
ASUS42 KCHS 280828
RWRCHS

REGIONAL WEATHER ROUNDUP
NATIONAL WEATHER SERVICE CHARLESTON SC
400 AM EDT THU APR 28 2016

NOTE: "FAIR" INDICATES FEW OR NO CLOUDS BELOW 12,000 FEET WITH NO
SIGNIFICANT WEATHER AND/OR OBSTRUCTIONS TO VISIBILITY.

NOT ALL STATIONS ARE QUALITY CONTROLLED. USE DATA WITH CAUTION...
ESPECIALLY DEWPOINT OBSERVATIONS.

SCZ027-030-031-034>040-042>050-280900-
...SOUTHEAST SOUTH CAROLINA...

CITY           SKY/WX    TMP DP  RH WIND       PRES   REMARKS
N CHARLESTON   PTCLDY    72  66  81 SW9       29.89F
WATERFRONT PRK   N/A     71  69  93 SW8       29.88S
MOUNT PLEASANT FAIR      72  68  88 S10       29.90S
JOHNS ISLAND   FAIR      72  68  88 SW10G16   29.90F
PINOPOLIS        N/A     72  66  83 VRB3      29.80F
MONCKS CORNER  FAIR      66  61  82 S6        29.89S
SUMMERVILLE    FAIR      68  68 100 S3        29.90S
BEAUFORT MCAS  CLEAR     71  65  81 S3        29.89F
BEAUFORT ARPT  FAIR      72  63  73 SW6       29.90S
HILTON HEAD IS CLOUDY    72  66  83 S8        29.92R
WALTERBORO     PTSUNNY   70  68  94 SW5       29.90S
ALLENDALE      FAIR      66  63  88 CALM      29.89R

...SOUTHERN MIDLANDS AND PEE DEE...

CITY           SKY/WX    TMP DP  RH WIND       PRES   REMARKS
GEORGETOWN     PTSUNNY   70  64  83 SW10      29.91S
KINGSTREE      PTSUNNY   64  61  88 CALM      29.89R
ORANGEBURG     CLEAR     65  61  87 S5        29.88F
BARNWELL       PTSUNNY   70  64  83 CALM      29.89S
AIKEN          PTSUNNY   64  61  88 S6        29.91S
MANNING        NOT AVBL
COLUMBIA       PTCLDY    68  58  70 SE5       29.86S
SUMTER         CLEAR     67  60  80 SW6       29.86S
FLORENCE       PTCLDY    68  62  81 SW7       29.88F
MYRTLE BEACH   MOCLDY    70  63  78 S6        29.92S
N MYRTLE BEACH MOCLDY    69  67  93 SW8       29.90S

$$

GAZ063-065-086>088-099>101-113>116-118-119-134>141-150-280900-
...SOUTHEAST GEORGIA...

CITY           SKY/WX    TMP DP  RH WIND       PRES   REMARKS
SAVANNAH ARPT  PTCLDY    69  63  81 S7        29.90F
HUNTER AAF     CLOUDY    70  66  87 SW2       29.88S
FORT STEWART   CLOUDY    67  63  85 CALM      29.89R
STATESBORO     CLOUDY    71  67  87 SW5       29.90S
SYLVANIA       CLOUDY    69  65  88 SW5       29.90S
CLAXTON        PTSUNNY   68  65  90 CALM      29.91R

...CSRA...CENTRAL AND FAR SOUTHEAST GEORGIA...

CITY           SKY/WX    TMP DP  RH WIND       PRES   REMARKS
THOMSON        CLOUDY    68  66  93 SW3       29.92S
AUGUSTA-BUSH   LGT RAIN  68  64  87 S6        29.87R
AUGUSTA-DANIEL LGT RAIN  71  62  73 S5        29.88S
SWAINSBORO     PTSUNNY   68  64  88 CALM      29.90S
VIDALIA        LGT RAIN  70  63  78 S3        29.90F
EASTMAN        PTSUNNY  N/A N/A N/A CALM      29.92S
HAZLEHURST     PTSUNNY   70  66  87 CALM      29.89S
ALMA           CLOUDY    69  65  86 S3        29.90S
WAYCROSS       CLOUDY    67  66  95 SW3       29.91R
JESUP          FAIR      70  66  88 CALM      29.91S
BAXLEY         FAIR      70  68  94 CALM      29.91R
BRUNSWICK      MOCLDY    72  68  88 CALM      29.92S
SAINT SIMONS   MOCLDY    71  68  90 S7        29.91R

$$

SCZ027-028-034-036>038-045-046-048>050-GAZ119-141-280900-
...LAKE AND SUPPLEMENTAL COASTAL OBSERVATIONS...

STATION/POSITION TIME  TEMP    WIND        PRES    WAVE   SWELL
                       AIR SEA DIR/SP/G            HT/PER HT/PER/DIR
                 (UTC) (F)     (DEG/KT/KT) (MB)    (FT/S) (FT/S/D)
WINYAH BAY       0700   72     220/ 11     1012.0
LAKE MURRAY      0700   71     200/  9/ 11 1010.8F
ACE BASIN NERRS  0700   71        CALM     1013.0
FORT PULASKI     0800   72 71  200/  8/ 11 1012.8F
SAPELO ISLAND    0800   71     190/  6     1013.0R

$$

ANZ835-935-AMZ111-154-330-350-352-354-370-450-454-472-280900-
...C-MAN AND BUOY OBSERVATIONS...

STATION/POSITION TIME  TEMP    WIND        PRES    WAVE   SWELL
                       AIR SEA DIR/SP/G            HT/PER HT/PER/DIR
                 (UTC) (F)     (DEG/KT/KT) (MB)    (FT/S) (FT/S/D)
BUOY 41004       0750   73 72  200/ 10/ 12 1012.6R   3/ 5   2/ 5
BUOY 41008       NOT AVBL
FOLLY BEACH CMAN 0800   70     220/ 10/ 13 1012.7S
CAPERS NEARSHORE 0708   70 69  220/ 12/ 16 1012.5F
FRIPP NEARSHORE  0808   71 70  220/ 12/ 16 1011.9S


STATION/POSITION TIME  TEMP    WIND        PRES    WAVE   SWELL
                       AIR SEA DIR/SP/G            HT/PER HT/PER/DIR
                 (UTC) (F)     (DEG/KT/KT) (MB)    (FT/S) (FT/S/D)
5E ST. MARYS GA  0721      72                N/A     3/ 5
FRYING PAN BUOY  0800   72 70  200/ 10/ 14 1012.8F
BUOY 41025       0750   71 71  280/ 10/ 12 1013.0R   4/ 6   3/190/ 6
CAPE LOOKOUT NC  0800   68     210/  7/  8 1012.4F
BUOY 41002       0750   70 70  180/ 10/ 10 1015.4R   2/ 9   2/ 80/ 9
BUOY 41010       0720   74 76  170/ 12/ 14 1014.6F
ST AUGUSTINE FL  0800   71 71  190/  7/  8 1014.1R


$$




USA.gov is the U.S. government's official web portal to all federal, state and local government web resources and services.